"Period start","avg(HW err(1)/warn(2) (#))","avg(Visibility (m))","avg(Weather code (#))","avg(Precip intensity (mm/h))","min(HW err(1)/warn(2) (#))","max(HW err(1)/warn(2) (#))","std(HW err(1)/warn(2) (#))","med(HW err(1)/warn(2) (#))","min(Visibility (m))","max(Visibility (m))","std(Visibility (m))","med(Visibility (m))","min(Weather code (#))","max(Weather code (#))","std(Weather code (#))","med(Weather code (#))","min(Precip intensity (mm/h))","max(Precip intensity (mm/h))","std(Precip intensity (mm/h))","med(Precip intensity (mm/h))"
2014-11-07 00:00:00,2,5592,77,0.00,2,2,0,2,5149,6256,334,5592,77,77,0,77,0.00,0.00,0.00,0.00
2014-11-07 00:10:00,2,8171,77,0.00,2,2,0,2,6712,9687,1091,8226,77,77,0,77,0.00,0.00,0.00,0.00
2014-11-07 00:20:00,2,9838,78,0.00,2,2,0,2,8006,11160,930,9960,77,78,0,78,0.00,0.00,0.00,0.00
2014-11-07 00:30:00,2,10211,78,0.00,2,2,0,2,7985,13773,1827,10014,78,78,0,78,0.00,0.00,0.00,0.00
2014-11-07 00:40:00,2,6793,78,0.00,2,2,0,2,6025,7618,502,6828,78,78,0,78,0.00,0.00,0.00,0.00
2014-11-07 00:50:00,2,4999,78,0.03,2,2,0,2,4228,5742,605,4987,78,78,0,78,0.00,0.05,0.03,0.03
2014-11-07 01:00:00,2,3728,78,0.06,2,2,0,2,2996,4352,359,3757,78,78,0,78,0.05,0.10,0.02,0.05
2014-11-07 01:10:00,2,2764,76,0.21,2,2,0,2,2373,3139,221,2755,71,78,3,77,0.10,0.30,0.08,0.20
2014-11-07 01:20:00,2,3290,76,0.07,2,2,0,2,2236,6284,1392,2474,71,77,2,77,0.00,0.10,0.03,0.10
2014-11-07 01:30:00,2,3089,77,0.09,2,2,0,2,2460,5127,781,2804,77,78,0,77,0.00,0.15,0.04,0.10
2014-11-07 01:40:00,2,6131,75,0.02,2,2,0,2,4484,8084,947,6232,71,78,3,77,0.00,0.10,0.03,0.00
2014-11-07 01:50:00,2,5333,78,0.02,2,2,0,2,3506,8083,1508,5038,77,78,0,78,0.00,0.05,0.02,0.00
2014-11-07 02:00:00,2,5163,78,0.01,2,2,0,2,3634,7838,1221,4912,77,78,0,78,0.00,0.05,0.02,0.00
2014-11-07 02:10:00,2,4534,77,0.02,2,2,0,2,3624,5272,572,4619,77,77,0,77,0.00,0.05,0.02,0.00
2014-11-07 02:20:00,2,6097,78,0.00,2,2,0,2,5166,6922,539,6086,77,78,0,78,0.00,0.00,0.00,0.00
2014-11-07 02:30:00,2,7835,76,0.02,2,2,0,2,7117,10202,846,7622,71,78,3,77,0.00,0.10,0.03,0.00
2014-11-07 02:40:00,2,7158,77,0.02,2,2,0,2,5083,8989,1132,7118,71,78,2,78,0.00,0.05,0.02,0.00
2014-11-07 02:50:00,2,3710,77,0.06,2,2,0,2,3361,4103,243,3688,77,77,0,77,0.05,0.10,0.02,0.05
2014-11-07 03:00:00,2,4453,78,0.07,2,2,0,2,3835,4894,307,4524,77,78,0,78,0.05,0.20,0.05,0.05
2014-11-07 03:10:00,2,3965,75,0.14,2,2,0,2,3629,4342,230,3914,71,78,3,77,0.05,0.35,0.09,0.10
2014-11-07 03:20:00,2,3429,75,0.10,2,2,0,2,2984,3907,255,3460,71,78,3,77,0.05,0.25,0.06,0.10
2014-11-07 03:30:00,2,3084,71,0.26,2,2,0,2,2630,3933,414,2967,71,71,0,71,0.15,0.55,0.13,0.20
2014-11-07 03:40:00,2,4664,71,0.18,2,2,0,2,3853,5221,437,4702,71,71,0,71,0.05,0.40,0.11,0.20
2014-11-07 03:50:00,2,5466,71,0.12,2,2,0,2,4519,6501,505,5384,71,71,0,71,0.05,0.35,0.09,0.10
2014-11-07 04:00:00,2,5414,71,0.15,2,2,0,2,4704,6170,377,5337,71,71,0,71,0.05,0.45,0.11,0.12
2014-11-07 04:10:00,2,8921,71,0.07,2,2,0,2,6542,12469,2167,8279,71,71,0,71,0.00,0.15,0.06,0.05
2014-11-07 04:20:00,2,11796,71,0.10,2,2,0,2,9704,13067,956,11740,71,71,0,71,0.00,0.55,0.16,0.05
2014-11-07 04:30:00,2,8091,71,0.08,2,2,0,2,6103,10624,1636,7406,71,71,0,71,0.00,0.30,0.09,0.05
2014-11-07 04:40:00,2,6221,71,0.15,2,2,0,2,5072,7151,729,6309,71,71,0,71,0.00,0.40,0.12,0.12
2014-11-07 04:50:00,2,5424,71,0.07,2,2,0,2,3530,7814,1021,5405,71,71,0,71,0.05,0.20,0.05,0.05
2014-11-07 05:00:00,2,3543,71,0.07,2,2,0,2,3002,4206,341,3613,71,71,0,71,0.05,0.20,0.05,0.05
2014-11-07 05:10:00,2,3171,73,0.06,2,2,0,2,2852,3496,180,3208,71,77,3,71,0.05,0.10,0.02,0.05
2014-11-07 05:20:00,2,3092,77,0.06,2,2,0,2,2858,3334,119,3080,77,77,0,77,0.05,0.10,0.02,0.05
2014-11-07 05:30:00,2,2864,77,0.08,2,2,0,2,2611,3145,175,2867,77,77,0,77,0.05,0.15,0.03,0.08
2014-11-07 05:40:00,2,3592,77,0.06,2,2,0,2,2493,5018,799,3508,77,77,0,77,0.00,0.10,0.03,0.05
2014-11-07 05:50:00,2,3667,77,0.08,2,2,0,2,3002,4188,339,3638,77,77,0,77,0.05,0.20,0.05,0.05
2014-11-07 06:00:00,2,3400,77,0.15,2,2,0,2,3004,4082,349,3327,77,77,0,77,0.05,0.25,0.06,0.15
2014-11-07 06:10:00,2,5297,77,0.06,2,2,0,2,4413,6529,553,5432,77,77,0,77,0.05,0.10,0.02,0.05
2014-11-07 06:20:00,2,6545,77,0.05,2,2,0,2,5453,7991,833,6275,77,77,0,77,0.05,0.05,0.00,0.05
2014-11-07 06:30:00,2,8283,77,0.04,2,2,0,2,5097,14107,2663,7614,77,78,0,77,0.00,0.10,0.03,0.05
2014-11-07 06:40:00,2,16184,78,0.00,2,2,0,2,12930,20267,2321,15948,77,78,0,78,0.00,0.00,0.00,0.00
2014-11-07 06:50:00,2,20238,78,0.00,2,2,0,2,15275,26490,4381,20522,77,78,0,78,0.00,0.00,0.00,0.00
2014-11-07 07:00:00,2,6004,78,0.08,2,2,0,2,3357,9438,2450,4446,78,78,0,78,0.00,0.20,0.06,0.05
2014-11-07 07:10:00,2,4024,74,0.12,2,2,0,2,2896,5314,824,3701,71,77,3,74,0.05,0.25,0.06,0.12
2014-11-07 07:20:00,2,4126,78,0.11,2,2,0,2,3088,4939,748,4570,77,78,0,78,0.05,0.20,0.05,0.10
2014-11-07 07:30:00,2,7585,76,0.07,2,2,0,2,5814,9535,1183,7492,71,78,3,78,0.00,0.15,0.04,0.08
2014-11-07 07:40:00,2,4070,77,0.20,2,2,0,2,3115,5116,697,4012,77,77,0,77,0.10,0.30,0.06,0.20
2014-11-07 07:50:00,2,2884,76,0.31,2,2,0,2,2452,3256,218,2841,71,78,3,78,0.15,0.45,0.09,0.33
2014-11-07 08:00:00,2,4697,77,0.21,2,2,0,2,3322,5930,826,4850,77,77,0,77,0.10,0.30,0.06,0.23
2014-11-07 08:10:00,2,5966,78,0.10,2,2,0,2,5371,6479,356,5987,77,78,0,78,0.05,0.15,0.04,0.10
2014-11-07 08:20:00,2,6235,78,0.09,2,2,0,2,3749,7952,1307,6614,77,78,0,78,0.05,0.20,0.04,0.10
2014-11-07 08:30:00,2,3814,78,0.20,2,2,0,2,3260,4257,312,3834,77,78,0,78,0.10,0.40,0.08,0.20
2014-11-07 08:40:00,2,4675,77,0.19,2,2,0,2,3954,5510,481,4564,77,77,0,77,0.15,0.25,0.04,0.20
2014-11-07 08:50:00,2,4607,77,0.21,2,2,0,2,4123,5471,371,4538,77,78,0,77,0.10,0.30,0.06,0.23
2014-11-07 09:00:00,2,5601,77,0.12,2,2,0,2,5244,6024,256,5530,77,78,0,77,0.05,0.20,0.06,0.12
2014-11-07 09:10:00,2,4254,75,0.23,2,2,0,2,3683,5028,384,4281,71,77,3,77,0.10,0.35,0.07,0.23
2014-11-07 09:20:00,2,4636,77,0.11,2,2,0,2,3962,5294,397,4682,77,77,0,77,0.05,0.25,0.07,0.08
2014-11-07 09:30:00,2,5242,77,0.03,2,2,0,2,4202,5872,426,5296,77,77,0,77,0.00,0.05,0.02,0.05
2014-11-07 09:40:00,2,4230,77,0.02,2,2,0,2,3794,4783,332,4154,77,77,0,77,0.00,0.05,0.02,0.00
2014-11-07 09:50:00,2,5405,77,0.01,2,2,0,2,4966,5742,271,5474,77,77,0,77,0.00,0.05,0.02,0.00
2014-11-07 10:00:00,2,6232,77,0.02,2,2,0,2,5391,6880,532,6290,77,77,0,77,0.00,0.05,0.02,0.00
2014-11-07 10:10:00,2,6898,77,0.02,2,2,0,2,6103,7942,504,6817,77,77,0,77,0.00,0.05,0.02,0.00
2014-11-07 10:20:00,2,9225,44,0.00,2,2,0,2,8265,10242,690,9298,10,77,34,44,0.00,0.00,0.00,0.00
2014-11-07 10:30:00,2,5473,10,0.00,2,2,0,2,4429,7006,843,5177,10,10,0,10,0.00,0.00,0.00,0.00
2014-11-07 10:40:00,2,3780,10,0.00,2,2,0,2,3113,4667,511,3636,10,10,0,10,0.00,0.00,0.00,0.00
2014-11-07 10:50:00,2,3249,62,0.01,2,2,0,2,2837,3711,276,3164,10,77,26,77,0.00,0.05,0.02,0.00
2014-11-07 11:00:00,2,4539,77,0.01,2,2,0,2,3798,5051,470,4684,77,77,0,77,0.00,0.05,0.02,0.00
2014-11-07 11:10:00,2,6032,77,0.01,2,2,0,2,5413,6396,296,6106,77,77,0,77,0.00,0.05,0.02,0.00
2014-11-07 11:20:00,2,6100,77,0.01,2,2,0,2,5458,6840,437,6082,77,77,0,77,0.00,0.05,0.02,0.00
2014-11-07 11:30:00,2,5449,77,0.01,2,2,0,2,4667,5820,325,5550,77,77,0,77,0.00,0.05,0.02,0.00
2014-11-07 11:40:00,2,4325,77,0.03,2,2,0,2,4005,4606,173,4340,77,77,0,77,0.00,0.05,0.02,0.05
2014-11-07 11:50:00,2,3879,77,0.02,2,2,0,2,3376,4472,314,3837,77,78,0,77,0.00,0.05,0.02,0.00
2014-11-07 12:00:00,2,3180,77,0.04,2,2,0,2,2895,3672,229,3140,77,78,0,77,0.00,0.05,0.02,0.05
2014-11-07 12:10:00,2,3793,77,0.00,2,2,0,2,3439,4114,238,3912,77,77,0,77,0.00,0.00,0.00,0.00
2014-11-07 12:20:00,2,3650,77,0.01,2,2,0,2,3329,4129,226,3678,77,77,0,77,0.00,0.05,0.02,0.00
2014-11-07 12:30:00,2,4778,77,0.00,2,2,0,2,3837,5510,564,4936,77,77,0,77,0.00,0.00,0.00,0.00
2014-11-07 12:40:00,2,5102,78,0.00,2,2,0,2,4375,6112,528,4974,77,78,0,78,0.00,0.00,0.00,0.00
2014-11-07 12:50:00,2,5522,77,0.00,2,2,0,2,4923,6282,428,5426,77,78,0,77,0.00,0.00,0.00,0.00
2014-11-07 13:00:00,2,5075,77,0.00,2,2,0,2,4752,5584,238,5039,77,77,0,77,0.00,0.00,0.00,0.00
2014-11-07 13:10:00,2,6377,30,0.00,2,2,0,2,5188,7210,650,6463,10,77,31,10,0.00,0.00,0.00,0.00
2014-11-07 13:20:00,2,6734,10,0.00,2,2,0,2,6092,7534,411,6776,10,10,0,10,0.00,0.00,0.00,0.00
2014-11-07 13:30:00,2,7446,10,0.00,2,2,0,2,6912,8703,604,7252,10,10,0,10,0.00,0.00,0.00,0.00
2014-11-07 13:40:00,2,5732,10,0.00,2,2,0,2,4255,8480,1190,5478,10,10,0,10,0.00,0.00,0.00,0.00
2014-11-07 13:50:00,2,3618,10,0.00,2,2,0,2,3078,4412,349,3599,10,10,0,10,0.00,0.00,0.00,0.00
2014-11-07 14:00:00,2,3718,10,0.00,2,2,0,2,3479,3889,125,3734,10,10,0,10,0.00,0.00,0.00,0.00
2014-11-07 14:10:00,2,3367,10,0.00,2,2,0,2,3174,3492,99,3411,10,10,0,10,0.00,0.00,0.00,0.00
2014-11-07 14:20:00,2,3468,10,0.00,2,2,0,2,3169,4029,277,3413,10,10,0,10,0.00,0.00,0.00,0.00
2014-11-07 14:30:00,2,4881,10,0.00,2,2,0,2,3878,5615,531,4934,10,10,0,10,0.00,0.00,0.00,0.00
2014-11-07 14:40:00,2,5621,10,0.00,2,2,0,2,5186,6295,333,5514,10,10,0,10,0.00,0.00,0.00,0.00
2014-11-07 14:50:00,2,7395,10,0.00,2,2,0,2,6100,9388,983,7690,10,10,0,10,0.00,0.00,0.00,0.00
2014-11-07 15:00:00,2,9376,10,0.00,2,2,0,2,7605,10932,1074,9304,10,10,0,10,0.00,0.00,0.00,0.00
2014-11-07 15:10:00,2,9222,10,0.00,2,2,0,2,8358,10295,647,9312,10,10,0,10,0.00,0.00,0.00,0.00
2014-11-07 15:20:00,2,9919,10,0.00,2,2,0,2,7594,11687,1180,9614,10,10,0,10,0.00,0.00,0.00,0.00
2014-11-07 15:30:00,2,10932,10,0.00,2,2,0,2,9999,12073,633,10742,10,10,0,10,0.00,0.00,0.00,0.00
2014-11-07 15:40:00,2,11697,5,0.00,2,2,0,2,10269,13002,758,11634,0,10,5,5,0.00,0.00,0.00,0.00
2014-11-07 15:50:00,2,14880,0,0.00,2,2,0,2,8077,24806,4110,14458,0,0,0,0,0.00,0.00,0.00,0.00
2014-11-07 16:00:00,2,29317,0,0.00,2,2,0,2,19541,37455,4912,29170,0,0,0,0,0.00,0.00,0.00,0.00
2014-11-07 16:10:00,2,18058,0,0.00,2,2,0,2,13001,25674,4809,16173,0,0,0,0,0.00,0.00,0.00,0.00
2014-11-07 16:20:00,2,12728,0,0.00,2,2,0,2,8788,15927,2560,13136,0,0,0,0,0.00,0.00,0.00,0.00
2014-11-07 16:30:00,2,10074,0,0.00,2,2,0,2,8253,11846,1230,10449,0,0,0,0,0.00,0.00,0.00,0.00
2014-11-07 16:40:00,2,10400,0,0.00,2,2,0,2,7838,12402,1351,10588,0,0,0,0,0.00,0.00,0.00,0.00
2014-11-07 16:50:00,2,9670,0,0.00,2,2,0,2,8812,10595,637,9808,0,0,0,0,0.00,0.00,0.00,0.00
2014-11-07 17:00:00,2,10440,0,0.00,2,2,0,2,7371,14246,1925,10393,0,0,0,0,0.00,0.00,0.00,0.00
2014-11-07 17:10:00,2,9254,0,0.00,2,2,0,2,7598,11046,1154,8890,0,0,0,0,0.00,0.00,0.00,0.00
2014-11-07 17:20:00,2,9059,9,0.00,2,2,0,2,7729,11032,1011,8744,0,10,3,10,0.00,0.00,0.00,0.00
2014-11-07 17:30:00,2,11234,10,0.00,2,2,0,2,10096,13676,972,11054,10,10,0,10,0.00,0.00,0.00,0.00
2014-11-07 17:40:00,2,9354,2,0.00,2,2,0,2,7156,11677,1444,9073,0,10,4,0,0.00,0.00,0.00,0.00
2014-11-07 17:50:00,2,6825,9,0.00,2,2,0,2,5892,8126,634,6882,0,10,3,10,0.00,0.00,0.00,0.00
2014-11-07 18:00:00,2,5734,10,0.00,2,2,0,2,4390,6646,683,5804,10,10,0,10,0.00,0.00,0.00,0.00
2014-11-07 18:10:00,2,5049,10,0.00,2,2,0,2,4057,5806,561,4889,10,10,0,10,0.00,0.00,0.00,0.00
2014-11-07 18:20:00,2,4442,10,0.00,2,2,0,2,3244,5713,721,4194,10,10,0,10,0.00,0.00,0.00,0.00
2014-11-07 18:30:00,2,4809,10,0.00,2,2,0,2,3309,5658,641,4862,10,10,0,10,0.00,0.00,0.00,0.00
2014-11-07 18:40:00,2,5369,10,0.00,2,2,0,2,4717,5823,347,5402,10,10,0,10,0.00,0.00,0.00,0.00
2014-11-07 18:50:00,2,4231,10,0.00,2,2,0,2,3621,4499,258,4291,10,10,0,10,0.00,0.00,0.00,0.00
2014-11-07 19:00:00,2,3822,56,0.00,2,2,0,2,3488,4191,218,3913,10,78,30,74,0.00,0.00,0.00,0.00
2014-11-07 19:10:00,2,3924,78,0.00,2,2,0,2,3371,4378,336,3988,78,78,0,78,0.00,0.00,0.00,0.00
2014-11-07 19:20:00,2,4080,78,0.00,2,2,0,2,3926,4306,120,4050,78,78,0,78,0.00,0.00,0.00,0.00
2014-11-07 19:30:00,2,4390,78,0.00,2,2,0,2,3569,4943,498,4530,78,78,0,78,0.00,0.00,0.00,0.00
2014-11-07 19:40:00,2,4471,78,0.00,2,2,0,2,4001,4806,250,4560,78,78,0,78,0.00,0.00,0.00,0.00
2014-11-07 19:50:00,2,3213,78,0.00,2,2,0,2,2507,4252,569,3138,78,78,0,78,0.00,0.00,0.00,0.00
2014-11-07 20:00:00,2,2822,78,0.00,2,2,0,2,2491,3181,199,2821,78,78,0,78,0.00,0.00,0.00,0.00
2014-11-07 20:10:00,2,3084,77,0.00,2,2,0,2,2562,3469,294,3108,77,78,0,77,0.00,0.00,0.00,0.00
2014-11-07 20:20:00,2,2391,77,0.03,2,2,0,2,2112,2631,148,2408,77,77,0,77,0.00,0.05,0.03,0.03
2014-11-07 20:30:00,2,2889,77,0.01,2,2,0,2,2238,3596,541,2665,77,77,0,77,0.00,0.05,0.02,0.00
2014-11-07 20:40:00,2,4200,77,0.00,2,2,0,2,3284,4784,430,4220,77,77,0,77,0.00,0.00,0.00,0.00
2014-11-07 20:50:00,2,4342,77,0.00,2,2,0,2,3740,4735,309,4481,77,77,0,77,0.00,0.00,0.00,0.00
2014-11-07 21:00:00,2,3854,77,0.00,2,2,0,2,3407,4333,292,3858,77,77,0,77,0.00,0.00,0.00,0.00
2014-11-07 21:10:00,2,4371,77,0.00,2,2,0,2,3977,4766,196,4352,77,77,0,77,0.00,0.00,0.00,0.00
2014-11-07 21:20:00,2,3817,77,0.00,2,2,0,2,3220,4417,442,3788,77,77,0,77,0.00,0.00,0.00,0.00
2014-11-07 21:30:00,2,3775,77,0.00,2,2,0,2,3079,4457,445,3931,77,77,0,77,0.00,0.00,0.00,0.00
2014-11-07 21:40:00,2,3975,77,0.00,2,2,0,2,3555,4548,345,3933,77,77,0,77,0.00,0.00,0.00,0.00
2014-11-07 21:50:00,2,3862,77,0.00,2,2,0,2,3483,4196,220,3848,77,77,0,77,0.00,0.00,0.00,0.00
2014-11-07 22:00:00,2,4144,77,0.00,2,2,0,2,3639,4709,351,4108,77,77,0,77,0.00,0.00,0.00,0.00
2014-11-07 22:10:00,2,4470,77,0.00,2,2,0,2,3490,5253,502,4562,77,77,0,77,0.00,0.00,0.00,0.00
2014-11-07 22:20:00,2,4806,77,0.01,2,2,0,2,4295,5394,303,4754,77,77,0,77,0.00,0.05,0.02,0.00
2014-11-07 22:30:00,2,3833,77,0.00,2,2,0,2,3502,4221,236,3846,77,77,0,77,0.00,0.00,0.00,0.00
2014-11-07 22:40:00,2,3680,77,0.00,2,2,0,2,3171,4125,258,3698,77,77,0,77,0.00,0.00,0.00,0.00
2014-11-07 22:50:00,2,4145,23,0.00,2,2,0,2,3075,4767,524,4238,10,77,27,10,0.00,0.00,0.00,0.00
2014-11-07 23:00:00,2,4268,10,0.00,2,2,0,2,2951,5110,623,4406,10,10,0,10,0.00,0.00,0.00,0.00
2014-11-07 23:10:00,2,4858,10,0.00,2,2,0,2,3756,5667,521,4872,10,10,0,10,0.00,0.00,0.00,0.00
2014-11-07 23:20:00,2,3643,10,0.00,2,2,0,2,2993,4475,445,3572,10,10,0,10,0.00,0.00,0.00,0.00
2014-11-07 23:30:00,2,3622,10,0.00,2,2,0,2,2932,4654,491,3510,10,10,0,10,0.00,0.00,0.00,0.00
2014-11-07 23:40:00,2,3987,10,0.00,2,2,0,2,3543,4512,325,3917,10,10,0,10,0.00,0.00,0.00,0.00
2014-11-07 23:50:00,2,4067,10,0.00,2,2,0,2,3466,4744,397,4189,10,10,0,10,0.00,0.00,0.00,0.00
